Overview Statistics Trail Chart Weather Telemetry Raw packets
 

This is the latest recevied weather packets stored in our database for station/object YD1OCG-15. If no packets are shown the sender has not sent any weather packets the latest 10 day(s).

<< 1 2 3 4 5 >>
Time Temp. Humidity Pressure Rain* Wind** Luminosity Snow
1788566964 25° C 72% 1017 hPa - - - -
1788565163 25° C 72% 1018 hPa - - - -
1788563364 24.44° C 73% 1016 hPa - - - -
1788561563 24.44° C 77% 1017 hPa - - - -
1788559763 25° C 72% 1016 hPa - - - -
1788557964 25.56° C 77% 1016 hPa - - - -
1788556164 25.56° C 72% 1015 hPa - - - -
1788554363 26.11° C 78% 1016 hPa - - - -
1788552563 25.56° C 70% 1015 hPa - - - -
1788550764 26.67° C 78% 1016 hPa - - - -
1788548963 25.56° C 67% 1016 hPa - - - -
1788547163 27.22° C 76% 1016 hPa - - - -
1788545364 26.11° C 74% 1016 hPa - - - -
1788543565 26.67° C 79% 1016 hPa - - - -
1788541764 22.78° C 69% 1017 hPa - - - -
1788539963 22.78° C 78% 1017 hPa - - - -
1788538164 26.11° C 68% 1017 hPa - - - -
1788536364 26.67° C 76% 1017 hPa - - - -
1788534563 26.67° C 71% 1016 hPa - - - -
1788532763 27.22° C 77% 1017 hPa - - - -
1788530964 26.67° C 71% 1016 hPa - - - -
1788529165 27.22° C 74% 1017 hPa - - - -
1788527363 26.67° C 68% 1015 hPa - - - -
1788525563 27.78° C 76% 1016 hPa - - - -
1788523763 27.78° C 70% 1015 hPa - - - -

* Rain since midnight (hover to see other rain measurements)
** Current wind speed in m/s (hover to see current wind gust speed)